Weather in Arsk

Russia / Republic of Tatarstan     56°05′28″N   49°52′37″E
temp.,
°C
wind,
m/s
gust,
m/s
humid.,
%
clouds,
%
prec.,
mm/h
press.,
hPa
HPBL,
m
23 january, sat
sat2300:00−23ese359497 0.0 1025102
03:00−21se479397 0.0 1025190
06:00−18se4795100 0.0 1024235
09:00−17se6109699 0.4 1024271
12:00−12sse61094100 0.7 1023349
15:00−11sse51094100 1.1 1022366
18:00−10sse5994100 0.1 1022331
21:00−10sse5995100 0.4 1021256
24 january, sun
sun2400:00−8sse5995100 0.5 1020267
03:00+1sw49100100 1.6 1017216
06:000ssw4999100 0.6 1019298
09:00+1sw510100100 0.6 1020305
12:00+1sw49100100 0.0 1021276
15:00+1sw36100100 0.1 1021149
18:00+1ssw4899100 0.1 1022226
21:00+1ssw4999100 0.3 1023287
25 january, mon
mon2500:00+1ssw51099100 0.3 1023303
03:00+1ssw51099100 0.5 1024289
06:00+1ssw61197100 0.3 1024338
09:000ssw61097100 1.3 1025418
12:00−1ssw61194100 0.7 1026377
15:00−2ssw61195100 1.2 1026441
18:00−3ssw6109699 0.1 1027443
21:00−2ssw61092100 0.1 1027541
26 january, tue
tue2600:00−2s61094100 0.1 1027680
03:00−3s61194100 0.1 1026534
06:00−4s61294100 0.1 1025515
09:00−2s61194100 0.3 1025764
12:00−3ssw71293100 0.1 1024566
15:00−2ssw61193100 0.1 1023628
18:00−2s71291100 0.0 1023648
21:00−3ssw61194100 0.1 1023618
27 january, wed
wed2700:00−3ssw61194100 0.1 1023549
03:00−3s61194100 0.2 1023425
06:00−2ssw6129698 0.2 1020504
09:00−3s71294100 0.1 1022449
12:00−3s71194100 0.1 1022511
15:000ssw5897100 0.1 1023361
18:00−6sse71393100 0.0 1021371
21:00−6s71491100 0.0 1021382